| time (UTC) | temp C | wind direction | speed KPH | gust KPH | rain 1hr cm | rain 24hr cm | rain mn cm | humidity % | barometer mb |
| 20260830234557 | 32 | 11 | 20.9 | 29.0 | 0.00 | 0.00 | 0.00 | 67 | 1013.1 |
| 20260830233056 | 32 | 53 | 20.9 | 30.6 | 0.00 | 0.00 | 0.00 | 67 | 1012.9 |
| 20260830231555 | 32 | 53 | 19.3 | 27.4 | 0.00 | 0.00 | 0.00 | 65 | 1012.9 |
| 20260830230055 | 33 | 48 | 27.4 | 38.6 | 0.00 | 0.00 | 0.00 | 63 | 1012.6 |
| 20260830224556 | 33 | 28 | 20.9 | 29.0 | 0.00 | 0.00 | 0.00 | 62 | 1012.4 |
| 20260830223154 | 33 | 36 | 19.3 | 27.4 | 0.00 | 0.00 | 0.00 | 60 | 1012.5 |
| 20260830221553 | 34 | 351 | 12.9 | 24.1 | 0.00 | 0.00 | 0.00 | 60 | 1012.2 |
| 20260830220056 | 34 | 45 | 16.1 | 25.7 | 0.00 | 0.00 | 0.00 | 59 | 1012.2 |
| 20260830214550 | 34 | 345 | 17.7 | 33.8 | 0.00 | 0.00 | 0.00 | 59 | 1012.5 |
| 20260830213049 | 34 | 355 | 16.1 | 29.0 | 0.00 | 0.00 | 0.00 | 61 | 1012.5 |
| 20260830211550 | 35 | 9 | 14.5 | 22.5 | 0.00 | 0.00 | 0.00 | 59 | 1012.6 |
| 20260830210048 | 35 | 5 | 14.5 | 19.3 | 0.00 | 0.00 | 0.00 | 60 | 1012.6 |
| 20260830204546 | 35 | 49 | 14.5 | 22.5 | 0.00 | 0.00 | 0.00 | 60 | 1012.7 |
| 20260830203045 | 33 | 17 | 14.5 | 27.4 | 0.00 | 0.00 | 0.00 | 63 | 1012.8 |
| 20260830201544 | 35 | 32 | 11.3 | 25.7 | 0.00 | 0.00 | 0.00 | 59 | 1013.1 |
| 20260830200039 | 35 | 133 | 3.2 | 11.3 | 0.00 | 0.00 | 0.00 | 54 | 1013.1 |
| 20260830194537 | 35 | 95 | 4.8 | 17.7 | 0.00 | 0.00 | 0.00 | 57 | 1013.4 |
| 20260830193034 | 35 | 105 | 8.0 | 19.3 | 0.00 | 0.00 | 0.00 | 56 | 1013.9 |
| 20260830191539 | 35 | 88 | 4.8 | 19.3 | 0.00 | 0.00 | 0.00 | 57 | 1014.0 |
| 20260830190031 | 35 | 31 | 4.8 | 16.1 | 0.00 | 0.00 | 0.00 | 58 | 1014.2 |
| 20260830184531 | 35 | 49 | 12.9 | 20.9 | 0.00 | 0.00 | 0.00 | 57 | 1014.6 |
| 20260830183027 | 35 | 77 | 4.8 | 16.1 | 0.00 | 0.00 | 0.00 | 57 | 1014.8 |
| 20260830181524 | 35 | 43 | 12.9 | 20.9 | 0.00 | 0.00 | 0.00 | 58 | 1014.9 |
| 20260830180022 | 33 | 134 | 1.6 | 14.5 | 0.00 | 0.00 | 0.00 | 60 | 1015.0 |
| 20260830174524 | 33 | 159 | 6.4 | 12.9 | 0.00 | 0.00 | 0.00 | 59 | 1015.2 |
| 20260830173018 | 33 | 139 | 1.6 | 16.1 | 0.00 | 0.00 | 0.00 | 62 | 1015.3 |
| 20260830171516 | 33 | 98 | 1.6 | 11.3 | 0.00 | 0.00 | 0.00 | 63 | 1015.3 |
| 20260830170033 | 32 | 131 | 3.2 | 14.5 | 0.00 | 0.00 | 0.00 | 66 | 1015.6 |
| 20260830164511 | 32 | 178 | 9.7 | 16.1 | 0.00 | 0.00 | 0.00 | 65 | 1015.8 |
| 20260830163008 | 32 | 130 | 3.2 | 14.5 | 0.00 | 0.00 | 0.00 | 64 | 1015.9 |
| 20260830161504 | 31 | 161 | 8.0 | 17.7 | 0.00 | 0.00 | 0.00 | 67 | 1016.0 |
| 20260830160004 | 32 | 124 | 4.8 | 14.5 | 0.00 | 0.00 | 0.00 | 66 | 1016.1 |
| 20260830154600 | 31 | 326 | 4.8 | 17.7 | 0.00 | 0.00 | 0.00 | 69 | 1016.1 |
| 20260830153053 | 31 | 127 | 6.4 | 16.1 | 0.00 | 0.00 | 0.00 | 73 | 1016.2 |
| 20260830151602 | 30 | 124 | 3.2 | 12.9 | 0.00 | 0.00 | 0.00 | 75 | 1016.3 |
| 20260830150047 | 30 | 103 | 4.8 | 11.3 | 0.00 | 0.00 | 0.00 | 77 | 1016.3 |
| 20260830144551 | 30 | 82 | 4.8 | 11.3 | 0.00 | 0.00 | 0.00 | 78 | 1016.2 |
| 20260830143039 | 29 | 124 | 6.4 | 12.9 | 0.00 | 0.00 | 0.00 | 79 | 1016.4 |
| 20260830141535 | 28 | 140 | 6.4 | 14.5 | 0.00 | 0.00 | 0.00 | 80 | 1016.1 |
| 20260830140032 | 28 | 68 | 3.2 | 14.5 | 0.00 | 0.00 | 0.00 | 80 | 1015.8 |
| 20260830134528 | 27 | 71 | 3.2 | 12.9 | 0.00 | 0.00 | 0.00 | 81 | 1015.6 |
| 20260830133030 | 27 | 42 | 1.6 | 6.4 | 0.00 | 0.00 | 0.00 | 80 | 1015.6 |
| 20260830131519 | 26 | 56 | 1.6 | 6.4 | 0.00 | 0.00 | 0.00 | 80 | 1015.5 |
| 20260830130016 | 26 | 93 | 3.2 | 8.0 | 0.00 | 0.00 | 0.00 | 82 | 1015.4 |
| 20260830124518 | 25 | 348 | 4.8 | 8.0 | 0.00 | 0.00 | 0.00 | 83 | 1015.3 |
| 20260830123010 | 25 | 51 | 0.0 | 3.2 | 0.00 | 0.00 | 0.00 | 84 | 1014.9 |
| 20260830121507 | 25 | 317 | 1.6 | 6.4 | 0.00 | 0.00 | 0.00 | 84 | 1014.9 |
| 20260830120005 | 25 | 340 | 3.2 | 6.4 | 0.00 | 0.00 | 0.00 | 84 | 1014.9 |
| 20260830114502 | 25 | 323 | 0.0 | 3.2 | 0.00 | 0.00 | 0.00 | 83 | 1014.9 |
| 20260830113100 | 25 | 329 | 1.6 | 4.8 | 0.00 | 0.00 | 0.00 | 83 | 1014.6 |
| 20260830111600 | 25 | 337 | 3.2 | 6.4 | 0.00 | 0.00 | 0.00 | 82 | 1014.4 |
| 20260830104558 | 25 | 355 | 3.2 | 4.8 | 0.00 | 0.00 | 0.00 | 81 | 1014.3 |
| 20260830103058 | 25 | 74 | 3.2 | 6.4 | 0.00 | 0.00 | 0.00 | 82 | 1014.1 |
| 20260830101559 | 25 | 38 | 4.8 | 8.0 | 0.00 | 0.00 | 0.00 | 82 | 1014.2 |
| 20260830100057 | 25 | 37 | 3.2 | 6.4 | 0.00 | 0.00 | 0.00 | 82 | 1014.2 |
| 20260830094555 | 25 | 30 | 1.6 | 4.8 | 0.00 | 0.00 | 0.00 | 82 | 1014.2 |
| 20260830093054 | 25 | 40 | 3.2 | 6.4 | 0.00 | 0.00 | 0.00 | 83 | 1014.3 |
| 20260830091553 | 25 | 42 | 3.2 | 6.4 | 0.00 | 0.00 | 0.00 | 83 | 1014.3 |
| 20260830090152 | 25 | 32 | 3.2 | 6.4 | 0.00 | 0.00 | 0.00 | 84 | 1014.4 |
| 20260830084552 | 25 | 29 | 1.6 | 4.8 | 0.00 | 0.00 | 0.00 | 84 | 1014.4 |
| 20260830083052 | 24 | 80 | 0.0 | 3.2 | 0.00 | 0.00 | 0.00 | 84 | 1014.5 |
| 20260830081549 | 24 | 88 | 0.0 | 6.4 | 0.00 | 0.00 | 0.00 | 84 | 1014.6 |
| 20260830080049 | 24 | 155 | 0.0 | 1.6 | 0.00 | 0.00 | 0.00 | 83 | 1014.9 |
| 20260830074547 | 24 | 155 | 0.0 | 4.8 | 0.00 | 0.00 | 0.00 | 83 | 1014.9 |
| 20260830073049 | 24 | 138 | 0.0 | 3.2 | 0.00 | 0.00 | 0.00 | 83 | 1015.0 |
| 20260830071545 | 24 | 138 | 1.6 | 4.8 | 0.00 | 0.00 | 0.00 | 83 | 1015.2 |
| 20260830070044 | 24 | 138 | 0.0 | 3.2 | 0.00 | 0.00 | 0.00 | 82 | 1015.3 |
| 20260830064549 | 25 | 159 | 1.6 | 6.4 | 0.00 | 0.00 | 0.00 | 82 | 1015.6 |
| 20260830063040 | 25 | 200 | 0.0 | 3.2 | 0.00 | 0.00 | 0.00 | 81 | 1015.7 |
| 20260830061538 | 25 | 201 | 3.2 | 6.4 | 0.00 | 0.00 | 0.00 | 80 | 1015.9 |
| 20260830060036 | 25 | 182 | 1.6 | 8.0 | 0.00 | 0.00 | 0.00 | 80 | 1016.2 |
| 20260830054535 | 25 | 171 | 4.8 | 11.3 | 0.00 | 0.00 | 0.00 | 79 | 1016.4 |
| 20260830053037 | 26 | 134 | 3.2 | 9.7 | 0.00 | 0.00 | 0.00 | 79 | 1016.2 |
| 20260830051534 | 25 | 77 | 1.6 | 6.4 | 0.00 | 0.00 | 0.00 | 79 | 1016.3 |
| 20260830050034 | 25 | 36 | 0.0 | 3.2 | 0.00 | 0.00 | 0.00 | 80 | 1016.3 |
| 20260830044535 | 25 | 177 | 1.6 | 4.8 | 0.00 | 0.00 | 0.00 | 79 | 1016.5 |
| 20260830043033 | 26 | 177 | 1.6 | 4.8 | 0.00 | 0.00 | 0.00 | 79 | 1016.5 |
| 20260830041534 | 26 | 209 | 0.0 | 6.4 | 0.00 | 0.00 | 0.00 | 78 | 1016.5 |
| 20260830040032 | 26 | 200 | 3.2 | 9.7 | 0.00 | 0.00 | 0.00 | 77 | 1016.4 |
| 20260830034531 | 26 | 188 | 1.6 | 8.0 | 0.00 | 0.00 | 0.00 | 76 | 1016.3 |
| 20260830033030 | 26 | 188 | 3.2 | 8.0 | 0.00 | 0.00 | 0.00 | 76 | 1016.1 |
| 20260830031530 | 26 | 192 | 1.6 | 4.8 | 0.00 | 0.00 | 0.00 | 76 | 1015.8 |
| 20260830030035 | 26 | 221 | 1.6 | 6.4 | 0.00 | 0.00 | 0.00 | 76 | 1015.6 |
| 20260830023034 | 26 | 129 | 0.0 | 9.7 | 0.00 | 0.00 | 0.00 | 75 | 1015.2 |
| 20260830021531 | 26 | 124 | 0.0 | 4.8 | 0.00 | 0.00 | 0.00 | 75 | 1015.0 |
| 20260830020028 | 27 | 144 | 4.8 | 8.0 | 0.00 | 0.00 | 0.00 | 74 | 1014.8 |
| 20260830014535 | 26 | 134 | 1.6 | 6.4 | 0.00 | 0.00 | 0.00 | 73 | 1014.7 |
| 20260830013026 | 26 | 49 | 1.6 | 9.7 | 0.00 | 0.00 | 0.00 | 74 | 1014.7 |
| 20260830011529 | 26 | 67 | 1.6 | 14.5 | 0.00 | 0.00 | 0.00 | 74 | 1014.8 |
| 20260830010026 | 26 | 118 | 12.9 | 16.1 | 0.00 | 0.00 | 0.00 | 74 | 1015.0 |
| 20260830004529 | 26 | 154 | 4.8 | 14.5 | 0.00 | 0.00 | 0.00 | 75 | 1015.2 |
| 20260830003025 | 27 | 146 | 11.3 | 27.4 | 0.00 | 0.00 | 0.00 | 73 | 1015.4 |
| 20260830001537 | 28 | 150 | 25.7 | 40.2 | 0.00 | 0.00 | 0.00 | 69 | 1015.7 |
| 20260830000024 | 31 | 86 | 20.9 | 35.4 | 0.00 | 0.00 | 0.00 | 72 | 1015.0 |